Home > Time Zones > World Clock > Weather > Russia > Ufa > Past weeks

Flag for Russia Weather past 2 weeks in Ufa, Russia

Now
18 °F

Overcast.


Feels Like: 6 °F
Forecast: 14 / 22 °F
Wind: 10 mph from West

Location: Ufa

Current Time: Oct 23, 2014 at 7:18:55 PM

Latest Report: Oct 23, 2014 at 7:00 PM


Visibility: N/A

Pressure: 29.80 "Hg

Humidity: 68%

Dew point: 9 °F

Location of UfaLocation

Historic Weather in Ufa — Graph

°F

Ufa temperature yesterday

Maximum temperature yesterday: 48 °F (at 1:30 PM)
Minimum temperature yesterday: 32 °F (at 12:00 AM)
Average temperature yesterday: 40 °F

Past Weeks' High & Low Weather Summary

 TemperatureHumidityPressure
High55 °F (Oct 12, 2:00 PM)100% (Oct 9, 3:30 AM)30.51 "Hg (Oct 9, 3:30 AM)
Low18 °F (Oct 23, 1:30 PM)62% (Oct 10, 2:00 PM)29.36 "Hg (Oct 22, 12:30 PM)
Average39 °F89%29.86 "Hg
* Reported Oct 8 6:00 PM — Oct 23 6:00 PM, Ufa, Weather by CustomWeather, © 2014

Note: Actual official high and low records may vary slightly from our data, if they occured in-between our weather recording intervals... More about our weather records

Advertising

Ufa weather history for previous 24 hours

 ConditionsComfort  
Time TempWeatherWind HumidityBarometerVisibility
6:00 PM
Oct 23
19 °FPartly sunny.13 mph63%29.80 "HgN/A
5:30 PM19 °FOvercast.15 mph63%29.77 "HgN/A
5:00 PM19 °FSnow flurries. Overcast.15 mph68%29.77 "HgN/A
4:30 PM19 °FSnow flurries. Overcast.15 mph73%29.77 "HgN/A
4:00 PM19 °FLight snow. Overcast.13 mph68%29.77 "Hg2 mi
3:30 PM19 °FLight snow. Overcast.10 mph68%29.77 "HgN/A
3:00 PM19 °FPartly sunny.17 mph63%29.77 "HgN/A
2:30 PM19 °FPartly sunny.17 mph63%29.77 "HgN/A
2:00 PM19 °FPartly sunny.15 mph63%29.77 "HgN/A
1:30 PM18 °FOvercast.15 mph86%29.77 "HgN/A
1:00 PM19 °FHeavy snow. Low clouds.10 mph86%29.77 "Hg1 mi
12:30 PM19 °FSnow showers. Overcast.8 mph86%29.74 "Hg1 mi
12:00 PM19 °FLight snow. Overcast.8 mph86%29.74 "Hg2 mi
11:30 AM21 °FLight snow. Overcast.10 mph74%29.74 "Hg2 mi
11:00 AM19 °FLight snow. Overcast.13 mph73%29.74 "HgN/A
10:30 AM19 °FLight snow. Overcast.13 mph73%29.71 "Hg2 mi
10:00 AM21 °FLight snow. Overcast.13 mph68%29.71 "Hg1 mi
9:30 AM21 °FPartly sunny.8 mph68%29.71 "HgN/A
8:30 AM21 °FPassing clouds.13 mph68%29.71 "HgN/A
8:00 AM21 °FPassing clouds.15 mph74%29.68 "HgN/A
7:30 AM21 °FPassing clouds.17 mph68%29.68 "HgN/A
7:00 AM21 °FLight snow. Overcast.17 mph74%29.68 "HgN/A
6:30 AM23 °FLight snow. Overcast.17 mph80%29.65 "Hg3 mi
6:00 AM25 °FOvercast.17 mph63%29.65 "HgN/A
5:30 AM25 °FLight snow. Overcast.17 mph69%29.65 "HgN/A
5:00 AM25 °FLight snow. Overcast.17 mph69%29.62 "HgN/A
4:30 AM25 °FLight snow. Overcast.17 mph74%29.62 "HgN/A
4:00 AM27 °FLight snow. Overcast.20 mph74%29.62 "HgN/A
3:30 AM28 °FLight snow. Overcast.15 mph80%29.59 "HgN/A
3:00 AM28 °FLight snow. Overcast.15 mph74%29.59 "HgN/A
2:30 AM28 °FLight snow. Overcast.15 mph80%29.59 "HgN/A
2:00 AM30 °FLight snow. Overcast.15 mph75%29.56 "HgN/A
1:30 AM30 °FOvercast.13 mph80%29.56 "HgN/A
1:00 AM32 °FOvercast.17 mph75%29.56 "HgN/A
12:30 AM32 °FOvercast.10 mph80%29.53 "HgN/A
12:00 AM32 °FOvercast.13 mph80%29.53 "HgN/A
11:30 PM
Oct 22
32 °FOvercast.15 mph80%29.53 "HgN/A
11:00 PM34 °FOvercast.13 mph81%29.50 "HgN/A
10:30 PM34 °FOvercast.8 mph87%29.50 "HgN/A
10:00 PM36 °FOvercast.15 mph87%29.47 "HgN/A
9:30 PM37 °FOvercast.13 mph87%29.47 "HgN/A
9:00 PM37 °FLight rain. Overcast.15 mph93%29.45 "HgN/A
8:30 PM37 °FLight rain. Overcast.15 mph93%29.45 "HgN/A
8:00 PM39 °FLight rain. Fog.17 mph93%29.42 "Hg3 mi
7:30 PM43 °FLight rain. Fog.13 mph93%29.42 "Hg3 mi
7:00 PM45 °FLight rain. Fog.10 mph93%29.39 "Hg3 mi
Weather by CustomWeather, © 2014

See weather overviewHow to use our weather pages